Location: Bühlhof
(48.7849°N, 8.6361°E)
Time: 00:37:07
(UTC+00:00)

Cosmos 1486 Rocket - Pass Details

Date: 19 January 2026
Orbit: 754 x 779 km, 74.1° (Epoch: 17 February)

Event Time Altitude Azimuth Distance (km) Brightness Sun altitude
Rises 18:18:11 0° 338° (NNW) 3,273 7.5 -21.9°
Reaches altitude 10° 18:20:36 10° 341° (NNW) 2,340 6.7 -22.3°
Maximum altitude 18:25:54 68° 65° (ENE) 836 3.9 -23.1°
Enters shadow 18:26:56 54° 120° (ESE) 936 4.1 -23.3°
